Location: Arrodets-la-Barthe
(43.0306°N, 0.2829°E)
Time: 12:27:45
(UTC+00:00)

Cosmos 1892 - Pass Details

Date: 24 October 2021
Orbit: 501 x 522 km, 82.5° (Epoch: 07 December)

Event Time Altitude Azimuth Distance (km) Brightness Sun altitude
Rises 18:46:40 0° 352° (N) 2,614 6.4 -19.8°
Reaches altitude 10° 18:48:48 10° 352° (N) 1,722 5.5 -20.2°
Maximum altitude 18:52:34 88° 81° (E) 509 2.5 -20.8°
Enters shadow 18:53:45 42° 171° (S) 721 3.2 -21.1°
